Skip Page Navigation
NASA JPL Caltech
NASA Logo - Jet Propulsion Laboratory + View the NASA Portal
+ Center for Near-Earth Object Studies
JPL Home Earth Solar System Stars & Galaxies Technology
JPL Solar System Dynamics
BODIES ORBITS EPHEMERIDES TOOLS PHYSICAL DATA DISCOVERY FAQ SITE MAP
JPL Small-Body Database Browser
Search: [ help ]  
331 Etheridgea (A892 GA)
Classification: Main-belt Asteroid          SPK-ID: 2000331
Ephemeris | Orbit Diagram | Orbital Elements | Mission Design | Physical Parameters | Discovery Circumstances | Close-Approach Data ]

[ hide orbit diagram ]

For accurate long-term ephemerides, please instead use our Horizons system.This orbit viewer was implemented using two-body methods, and hence should not be used for determining accurate long-term trajectories (over several years or decades) or planetary encounter circumstances.


[ revert to old Java-based viewer ]

Orbital Elements at Epoch 2459000.5 (2020-May-31.0) TDB
Reference: JPL 38 (heliocentric ecliptic J2000)
 Element Value Uncertainty (1-sigma)   Units 
e .09613182617150734 3.7068e-08  
a 3.024877383292329 1.2245e-08 au
q 2.734090396491547 1.1145e-07 au
i 6.036705896072903 4.1355e-06 deg
node 21.86304389536988 3.8102e-05 deg
peri 333.4094992909864 4.3315e-05 deg
M 350.3552067478937 2.1595e-05 deg
tp 2459051.981419197054
(2020-Jul-21.48141920)
0.00011537 TDB
period 1921.587163819391
5.26
1.1668e-05
3.195e-08
d
yr
n .1873451315549255 1.1376e-09 deg/d
Q 3.315664370093112 1.3422e-08 au
  Orbit Determination Parameters
   # obs. used (total)      3247  
   data-arc span      46874 days (128.33 yr)  
   first obs. used      1892-04-02  
   last obs. used      2020-08-03  
   planetary ephem.      DE431  
   SB-pert. ephem.      SB431-N16  
   condition code      0  
   norm. resid. RMS      .44228  
   source      ORB  
   producer      Otto Matic  
   solution date      2020-Aug-24 22:14:34  

Additional Information
 Earth MOID = 1.73146 au 
 Jupiter MOID = 2.1237 au 
 T_jup = 3.230 
[ show covariance matrix ]

Ephemeris | Orbit Diagram | Orbital Elements | Mission Design | Physical Parameters | Discovery Circumstances | Close-Approach Data ]

Physical Parameter Table
Parameter Symbol Value Units Sigma Reference Notes
absolute magnitude H 9.7   n/a MPO492752 IRAS observations used: 11
diameter diameter 74.92 km 2.7 IRAS-A-FPA-3-RDR-IMPS-V6.0 IRAS observations used: 11
rotation period rot_per 25.315 h n/a LCDB (Rev. 2019-August); Warner et al., 2009 Published Reference List:
[Pilcher, F. (2016) Minor Planet Bull. 43, 135-136.]
geometric albedo albedo 0.0447   0.003 IRAS-A-FPA-3-RDR-IMPS-V6.0 IRAS observations used: 11
B-V BV 0.698   0.027 EAR-A-5-DDR-UBV-MEAN-VALUES-V1.2 #obs=2; phase (min.=4.13, mean=4.77, max.=5.40) deg.
U-B UB 0.298   0.015 EAR-A-5-DDR-UBV-MEAN-VALUES-V1.2 #obs=2; phase (min.=4.13, mean=4.77, max.=5.40) deg.
Tholen spectral type spec_T CX   n/a EAR-A-5-DDR-TAXONOMY-V4.0 used 2 color indices
SMASSII spectral type spec_B C   n/a EAR-A-5-DDR-TAXONOMY-V4.0 based on a high-resolution spectrum by Xu et al. (1995) or Bus and Binzel (2002)

331 Etheridgea (A892 GA)          Discovered 1892-Apr-01 by Charlois, A. at Nice
Reference: DISCOVERY.DBLast Updated: 2003-08-29

[ show close-approach data ]
Alternate Designations
 A892 GA = 1949 CM 
Ephemeris | Orbit Diagram | Orbital Elements | Mission Design | Physical Parameters | Discovery Circumstances | Close-Approach Data ]
ABOUT SSD CREDITS/AWARDS PRIVACY/COPYRIGHT GLOSSARY LINKS
FirstGov 2020-Oct-28 12:29 UT
(server date/time)  
NASA Home Page
Site Manager:   Ryan S. Park
Webmaster  Alan B. Chamberlin